Date String (YYYY-MM-DD hh:mm:ss) UTC,Instrument flags,Ambient pressure (hPa),Sample flow (lpm),Bypass flow (lpm),Sample temperature (°C),Ambient temperature (°C),ASC tube jacket temperature (°C),LED temperature (°C),Box temperature (°C),Sample RH (%),Span deviation,Mass concentration (μg/m³),Mass concentration (μg/m³),Mass concentration (μg/m³)
DateTimeUTC,F1_M11,P_M11,Q1_M11,Q2_M11,T1_M11,T2_M11,T3_M11,T4_M11,T5_M11,U1_M11,ZSPAN_M11,X0_M11,X2_M11,X1_M11
2022-06-25 02:00:00,,0827.3,5.00,0.00,29.6,28.5,00.0,38.3,31.5,27.9,0000.0,0010.79,0003.87,0002.77
2022-06-25 02:01:00,,0827.2,5.00,0.00,29.6,28.6,00.0,38.3,31.5,27.8,0000.0,0010.56,0003.84,0002.78
2022-06-25 02:02:00,,0827.3,5.01,0.00,29.6,28.6,00.0,38.3,31.5,28.2,0000.0,0010.83,0003.81,0002.78
2022-06-25 02:03:00,,0827.2,4.99,0.00,29.6,27.9,00.0,38.3,31.4,27.8,0000.0,0011.40,0003.78,0002.77
2022-06-25 02:04:00,,0827.2,4.99,0.00,29.5,27.2,00.0,38.2,31.2,28.0,0000.0,0011.41,0003.76,0002.76
2022-06-25 02:05:00,,0827.2,5.00,0.00,29.4,26.9,00.0,38.1,31.0,28.7,0000.0,0011.16,0003.76,0002.76
2022-06-25 02:06:00,,0827.2,5.01,0.00,29.3,26.9,00.0,38.1,30.9,29.2,0000.0,0010.93,0003.76,0002.76
2022-06-25 02:07:00,,0827.2,5.01,0.00,29.3,27.0,00.0,38.1,30.9,28.5,0000.0,0010.99,0003.78,0002.75
2022-06-25 02:08:00,,0827.2,5.00,0.00,29.3,27.1,00.0,38.1,31.0,28.4,0000.0,0010.34,0003.73,0002.74
2022-06-25 02:09:00,,0827.2,5.01,0.00,29.2,27.3,00.0,38.1,31.0,28.2,0000.0,0010.46,0003.70,0002.74
2022-06-25 02:10:00,,0827.2,4.99,0.00,29.3,27.5,00.0,38.1,31.1,28.0,0000.0,0009.83,0003.68,0002.75
2022-06-25 02:11:00,,0827.2,5.00,0.00,29.3,27.7,00.0,38.1,31.1,27.8,0000.0,0009.93,0003.69,0002.75
2022-06-25 02:12:00,,0827.2,5.00,0.00,29.3,27.8,00.0,38.1,31.1,27.6,0000.0,0010.02,0003.72,0002.75
2022-06-25 02:13:00,,0827.2,5.00,0.00,29.3,28.0,00.0,38.1,31.2,27.2,0000.0,0010.13,0003.76,0002.74
2022-06-25 02:14:00,,0827.2,5.01,0.00,29.3,28.1,00.0,38.1,31.2,27.1,0000.0,0010.09,0003.78,0002.74
2022-06-25 02:15:00,,0827.2,5.00,0.00,29.3,28.2,00.0,38.1,31.3,27.1,0000.0,0010.32,0003.81,0002.75
2022-06-25 02:16:00,,0827.1,5.00,0.00,29.4,28.3,00.0,38.1,31.3,26.9,0000.0,0010.79,0003.77,0002.75
2022-06-25 02:17:00,,0827.2,4.99,0.00,29.4,28.4,00.0,38.1,31.3,27.1,0000.0,0010.50,0003.72,0002.73
2022-06-25 02:18:00,,0827.2,4.99,0.00,29.4,28.5,00.0,38.2,31.4,26.8,0000.0,0010.13,0003.63,0002.72
2022-06-25 02:19:00,,0827.1,5.00,0.00,29.5,28.6,00.0,38.2,31.4,26.4,0000.0,0010.08,0003.64,0002.73
2022-06-25 02:20:00,,0827.1,5.00,0.00,29.5,28.3,00.0,38.2,31.4,25.8,0000.0,0009.89,0003.63,0002.72
2022-06-25 02:21:00,,0827.1,5.01,0.00,29.4,27.6,00.0,38.1,31.2,26.0,0000.0,0009.69,0003.60,0002.71
2022-06-25 02:22:00,,0827.1,5.00,0.00,29.3,27.0,00.0,38.1,31.0,26.5,0000.0,0009.53,0003.55,0002.68
2022-06-25 02:23:00,,0827.1,5.01,0.00,29.3,26.8,00.0,38.0,30.9,26.7,0000.0,0009.85,0003.54,0002.67
2022-06-25 02:24:00,,0827.1,5.00,0.00,29.2,26.9,00.0,38.0,30.9,26.5,0000.0,0010.04,0003.55,0002.66
2022-06-25 02:25:00,,0827.0,4.99,0.00,29.1,27.0,00.0,38.0,30.9,26.2,0000.0,0009.40,0003.53,0002.62
2022-06-25 02:26:00,,0827.1,5.00,0.00,29.1,27.1,00.0,38.0,30.9,26.2,0000.0,0009.19,0003.47,0002.58
2022-06-25 02:27:00,,0827.1,5.00,0.00,29.1,27.3,00.0,38.0,30.9,26.5,0000.0,0008.55,0003.46,0002.56
2022-06-25 02:28:00,,0827.0,5.00,0.00,29.1,27.5,00.0,38.0,31.0,26.4,0000.0,0008.52,0003.42,0002.53
2022-06-25 02:29:00,,0827.1,5.00,0.00,29.1,27.7,00.0,38.0,31.0,26.0,0000.0,0008.54,0003.41,0002.48
2022-06-25 02:30:00,,0827.0,5.01,0.00,29.2,27.8,00.0,38.0,31.1,25.9,0000.0,0008.60,0003.41,0002.44
2022-06-25 02:31:00,,0827.1,5.01,0.00,29.2,27.9,00.0,38.0,31.1,26.0,0000.0,0008.89,0003.40,0002.39
2022-06-25 02:32:00,,0827.0,5.00,0.00,29.2,28.1,00.0,38.0,31.2,26.2,0000.0,0008.83,0003.40,0002.36
2022-06-25 02:33:00,,0827.1,5.00,0.00,29.2,28.2,00.0,38.0,31.2,26.2,0000.0,0008.89,0003.41,0002.35
2022-06-25 02:34:00,,0827.1,5.00,0.00,29.3,28.3,00.0,38.0,31.2,26.3,0000.0,0008.57,0003.40,0002.35
2022-06-25 02:35:00,,0827.1,5.00,0.00,29.3,28.3,00.0,38.1,31.3,25.9,0000.0,0007.78,0003.33,0002.32
2022-06-25 02:36:00,,0827.2,5.00,0.00,29.3,28.4,00.0,38.1,31.3,25.6,0000.0,0007.39,0003.28,0002.31
2022-06-25 02:37:00,,0827.2,5.01,0.00,29.4,28.5,00.0,38.1,31.4,25.6,0000.0,0007.38,0003.33,0002.30
2022-06-25 02:38:00,,0827.1,5.00,0.00,29.4,28.6,00.0,38.1,31.4,25.5,0000.0,0007.41,0003.35,0002.29
2022-06-25 02:39:00,,0827.2,5.00,0.00,29.5,28.6,00.0,38.2,31.4,25.4,0000.0,0007.64,0003.42,0002.29
2022-06-25 02:40:00,,0827.1,4.99,0.00,29.5,28.5,00.0,38.2,31.4,25.4,0000.0,0007.78,0003.45,0002.30
2022-06-25 02:41:00,,0827.1,5.01,0.00,29.4,27.8,00.0,38.1,31.3,25.5,0000.0,0007.70,0003.45,0002.30
2022-06-25 02:42:00,,0827.1,5.01,0.00,29.4,27.4,00.0,38.1,31.2,25.8,0000.0,0007.52,0003.48,0002.31
2022-06-25 02:43:00,,0827.1,4.99,0.00,29.3,27.3,00.0,38.1,31.1,25.9,0000.0,0007.52,0003.48,0002.33
2022-06-25 02:44:00,,0827.1,4.99,0.00,29.3,27.4,00.0,38.1,31.1,26.0,0000.0,0007.44,0003.48,0002.34
2022-06-25 02:45:00,,0827.3,5.01,0.00,29.3,27.5,00.0,38.1,31.1,25.9,0000.0,0007.38,0003.45,0002.32
2022-06-25 02:46:00,,0827.2,5.00,0.00,29.3,27.6,00.0,38.1,31.1,25.9,0000.0,0007.74,0003.44,0002.31
2022-06-25 02:47:00,,0827.1,5.00,0.00,29.3,27.8,00.0,38.1,31.2,25.9,0000.0,0007.69,0003.44,0002.33
2022-06-25 02:48:00,,0827.3,5.01,0.00,29.3,27.9,00.0,38.1,31.2,25.8,0000.0,0007.58,0003.40,0002.33
2022-06-25 02:49:00,,0827.1,5.00,0.00,29.3,28.0,00.0,38.1,31.2,25.8,0000.0,0007.59,0003.39,0002.33
2022-06-25 02:50:00,,0827.1,5.00,0.00,29.3,28.1,00.0,38.1,31.3,25.7,0000.0,0008.31,0003.38,0002.33
2022-06-25 02:51:00,,0827.1,5.00,0.00,29.4,28.2,00.0,38.1,31.3,25.5,0000.0,0008.69,0003.38,0002.33
2022-06-25 02:52:00,,0827.1,5.00,0.00,29.4,28.3,00.0,38.2,31.3,25.4,0000.0,0008.88,0003.42,0002.33
2022-06-25 02:53:00,,0827.1,5.00,0.00,29.4,28.4,00.0,38.2,31.4,25.5,0000.0,0008.75,0003.40,0002.32
2022-06-25 02:54:00,,0827.1,5.01,0.00,29.4,28.5,00.0,38.2,31.4,25.6,0000.0,0008.76,0003.41,0002.31
2022-06-25 02:55:00,,0827.2,4.99,0.00,29.5,28.5,00.0,38.2,31.4,26.1,0000.0,0008.85,0003.44,0002.30
2022-06-25 02:56:00,,0827.2,5.00,0.00,29.5,28.6,00.0,38.2,31.5,25.5,0000.0,0009.00,0003.48,0002.32
2022-06-25 02:57:00,,0827.1,5.00,0.00,29.5,28.5,00.0,38.2,31.5,24.9,0000.0,0009.13,0003.56,0002.35
2022-06-25 02:58:00,,0827.1,5.00,0.00,29.5,27.8,00.0,38.2,31.3,24.7,0000.0,0009.22,0003.62,0002.36
2022-06-25 02:59:00,,0827.1,5.00,0.00,29.4,27.3,00.0,38.1,31.2,25.2,0000.0,0009.27,0003.66,0002.42
